STARLINK-11521, 62597

Orbit data source: Space-Track

STARLINK-11521, 62597 is a payload satellite owned by SpaceX/Seattle (US) in LEO that was launched on Mon, 13 Jan 2025 UTC via an FALCON 9 launch vehicle from the Air Force Eastern Test Range (AFETR). Payload-class satellites include a variety of spacecraft equipped with specific instruments for various scientific and technological missions. These include communications satellites like Starlink; space stations such as the ISS; scientific satellites like the Hubble; Earth observation satellites from companies like Planet Labs, Umbra, and HawkEye 360; GPS; miniature CubeSats for education and research; and military/defense satellites.

Loading next visibility...
Identifier
62597, 2025-008L
Orbit
LEO
Country
Flag of USUS
Related business
Manufacturer
SpaceX/Seattle
Mission
Operational Commercial Communications
Bus & Motor
STARLINK V2MD, Unknown motor
Mass
960 kg wet, ~910 kg dry
Launch date (UTC)
2025-01-13 (1 year ago)
Launch vehicle
FALCON 9
Launch site
Air Force Eastern Test Range (AFETR)
Object type
Payload
Rocket body
Debris
Shape & HBR
Box + 2 Pan, 18.1 m
Radar Cross Section
36.964 m², Large (>1 m²)

Expand to show TLE details & history
Last TLE update: 15 hours ago

TLE from 15 hours ago
0 STARLINK-11521
1 62597U 25008L   26127.29791635  .00193302  00000-0  14701-2 0  9997
2 62597  43.0015 132.7253 0001318 264.8001  95.2716 15.70922386 76502
Epoch: 2026-05-07T07:08Z
TLE epoch observation values (Epoch: 2026-05-07T07:08:59.972Z)
Latitude
-0.00005°
Longitude
160.3293°
Altitude
356.113 km
Speed
7.697 km/s
True Right ascension
08h 50m 54s
True Declination
0° 00' 00"
Sunlit
Object was in daylight at epoch
Visualization orbit readout
Latitude
Unknown
Longitude
Unknown
Altitude
Unknown
Speed
Unknown
Apparent Right ascension
Unknown
Apparent Declination
Unknown
Sunlit
N/A
Visualization observer readout
Local Sidereal Time
05:49:32
Azimuth
Unknown
Elevation
Unknown
Doppler factor
Unknown
Orbital elements
Apogee altitude
359.129 km
Perigee altitude
357.353 km
Semi-major axis
6,736.378 km
Eccentricity
0.00013
Inclination
43.0015°
RAAN
132.7253°
Arg. of periapsis
264.8001°
True anomaly
95.28664°
Mean anomaly
95.2716°
Eccentric anomaly
95.27912°
Mean motion
3.92558 °/min
Orbital period
91.71 mins
BSTAR
0.0014701
Loading maneuver chart data...
Computing Atmospheric mass density...
Loading historical data...
Loading historical data...
Loading historical data...
Loading historical data...
Loading historical data...
Loading historical data...
Loading historical data...

Documentation

Showing up to 5 results
|